QPF
0.00 0.00 0.01 0.01 0.01 0.01 0.01 0.01 0.01 0.02 0.02 0.04 0.08 0.07 0.06 0.06 0.07 0.08 0.08 0.08 0.08 0.06 0.05 0.05 0.05 0.06 0.06 0.05 0.05 0.05 0.04 0.03 0.02 0.02 0.02 0.02 0.01 0.01 0.01 0.01 0.01 0.02 0.02
0.00 0.00 0.00 0.01 0.02 0.02 0.02 0.03 0.03 0.02 0.02 0.05 0.07 0.06 0.05 0.04 0.05 0.05 0.06 0.07 0.07 0.05 0.05 0.05 0.05 0.07 0.07 0.06 0.06 0.06 0.06 0.05 0.03 0.02 0.02 0.02 0.01 0.02 0.02 0.01 0.01 0.01 0.02
0.01 0.01 0.01 0.02 0.03 0.03 0.02 0.02 0.03 0.03 0.03 0.05 0.06 0.05 0.05 0.05 0.05 0.05 0.06 0.08 0.07 0.05 0.05 0.05 0.06 0.06 0.05 0.05 0.07 0.07 0.08 0.07 0.04 0.03 0.01 0.01 0.01 0.03 0.02 0.02 0.02 0.02 0.02
0.04 0.04 0.02 0.02 0.03 0.03 0.03 0.03 0.02 0.02 0.02 0.03 0.04 0.04 0.05 0.06 0.05 0.05 0.06 0.07 0.06 0.05 0.05 0.05 0.04 0.04 0.03 0.04 0.04 0.05 0.06 0.06 0.05 0.04 0.02 0.02 0.02 0.02 0.02 0.02 0.02 0.02 0.02
0.04 0.03 0.02 0.03 0.03 0.04 0.06 0.05 0.04 0.03 0.02 0.03 0.03 0.04 0.05 0.05 0.04 0.03 0.04 0.04 0.04 0.04 0.03 0.03 0.04 0.04 0.04 0.04 0.04 0.04 0.05 0.05 0.05 0.05 0.05 0.04 0.03 0.03 0.03 0.03 0.03 0.03 0.03
0.03 0.04 0.05 0.06 0.06 0.06 0.06 0.06 0.04 0.03 0.03 0.03 0.04 0.04 0.03 0.03 0.03 0.03 0.04 0.04 0.04 0.03 0.02 0.03 0.03 0.04 0.04 0.04 0.04 0.03 0.04 0.04 0.05 0.05 0.04 0.04 0.04 0.05 0.05 0.04 0.04 0.04 0.04
0.05 0.06 0.07 0.07 0.05 0.04 0.04 0.05 0.04 0.04 0.05 0.04 0.03 0.03 0.03 0.03 0.04 0.04 0.04 0.04 0.03 0.02 0.03 0.03 0.03 0.03 0.03 0.02 0.02 0.03 0.04 0.05 0.06 0.05 0.05 0.04 0.04 0.03 0.03 0.02 0.02 0.02 0.02
0.12 0.11 0.09 0.08 0.06 0.05 0.05 0.05 0.05 0.06 0.05 0.04 0.05 0.05 0.05 0.06 0.07 0.07 0.07 0.05 0.03 0.03 0.03 0.03 0.04 0.03 0.02 0.01 0.01 0.01 0.02 0.03 0.04 0.03 0.03 0.04 0.04 0.04 0.03 0.03 0.03 0.03 0.03
0.16 0.16 0.13 0.10 0.09 0.09 0.09 0.08 0.07 0.08 0.07 0.07 0.06 0.06 0.07 0.09 0.09 0.08 0.07 0.05 0.05 0.04 0.04 0.04 0.05 0.05 0.04 0.02 0.01 0.01 0.01 0.02 0.02 0.02 0.02 0.02 0.02 0.03 0.04 0.04 0.03 0.03 0.03
0.14 0.14 0.15 0.11 0.09 0.09 0.09 0.09 0.09 0.07 0.06 0.06 0.07 0.07 0.08 0.08 0.08 0.07 0.07 0.06 0.05 0.05 0.05 0.06 0.06 0.05 0.03 0.02 0.01 0.01 0.01 0.01 0.01 0.01 0.01 0.02 0.02 0.02 0.03 0.04 0.03 0.03 0.03
0.12 0.12 0.10 0.08 0.06 0.06 0.06 0.06 0.08 0.08 0.07 0.05 0.05 0.05 0.04 0.04 0.05 0.05 0.06 0.05 0.05 0.05 0.05 0.06 0.06 0.06 0.05 0.03 0.01 0.01 0.01 0.02 0.01 0.01 0.01 0.01 0.01 0.02 0.02 0.03 0.04 0.04 0.04
0.09 0.06 0.05 0.05 0.06 0.06 0.06 0.07 0.07 0.08 0.09 0.07 0.05 0.03 0.02 0.04 0.04 0.04 0.04 0.05 0.05 0.05 0.04 0.04 0.04 0.04 0.04 0.03 0.01 0.01 0.01 0.01 0.01 0.01 0.01 0.01 0.01 0.01 0.01 0.02 0.03 0.04 0.05
0.04 0.04 0.03 0.03 0.04 0.04 0.05 0.06 0.05 0.04 0.04 0.04 0.04 0.02 0.02 0.03 0.03 0.03 0.05 0.06 0.06 0.05 0.04 0.04 0.03 0.03 0.03 0.03 0.03 0.02 0.01 0.01 0.01 0.01 0.01 0.01 0.01 0.01 0.01 0.01 0.02 0.03 0.04
0.03 0.03 0.03 0.03 0.04 0.04 0.04 0.03 0.03 0.03 0.02 0.02 0.01 0.01 0.02 0.03 0.04 0.06 0.06 0.05 0.05 0.04 0.04 0.03 0.03 0.03 0.03 0.03 0.03 0.03 0.02 0.01 0.01 0.01 0.01 0.01 0.01 0.01 0.01 0.01 0.01 0.02 0.03
0.02 0.02 0.02 0.02 0.02 0.04 0.04 0.04 0.03 0.03 0.03 0.02 0.02 0.02 0.03 0.04 0.06 0.06 0.04 0.03 0.04 0.04 0.04 0.02 0.02 0.03 0.02 0.02 0.01 0.01 0.02 0.02 0.01 0.01 0.01 0.02 0.02 0.02 0.02 0.02 0.02 0.03 0.03
0.03 0.03 0.03 0.02 0.02 0.02 0.03 0.02 0.02 0.02 0.02 0.02 0.02 0.03 0.03 0.03 0.04 0.03 0.03 0.03 0.03 0.04 0.03 0.02 0.02 0.02 0.02 0.02 0.02 0.02 0.01 0.01 0.02 0.02 0.01 0.02 0.02 0.02 0.03 0.03 0.03 0.04 0.04
0.03 0.04 0.05 0.04 0.03 0.03 0.02 0.02 0.01 0.01 0.02 0.03 0.02 0.02 0.02 0.02 0.03 0.03 0.02 0.02 0.03 0.04 0.03 0.02 0.02 0.03 0.03 0.03 0.03 0.02 0.02 0.02 0.01 0.02 0.02 0.02 0.03 0.03 0.02 0.02 0.02 0.04 0.04
0.05 0.06 0.07 0.06 0.05 0.04 0.03 0.01 0.01 0.01 0.02 0.02 0.02 0.02 0.02 0.02 0.03 0.03 0.03 0.02 0.02 0.02 0.02 0.03 0.03 0.04 0.04 0.05 0.04 0.03 0.04 0.03 0.02 0.02 0.03 0.02 0.03 0.03 0.02 0.01 0.01 0.02 0.03
0.08 0.09 0.10 0.09 0.06 0.04 0.02 0.01 0.00 0.01 0.02 0.01 0.01 0.01 0.02 0.02 0.03 0.03 0.03 0.02 0.02 0.02 0.01 0.01 0.02 0.04 0.05 0.05 0.06 0.07 0.05 0.05 0.05 0.04 0.04 0.04 0.03 0.03 0.03 0.02 0.02 0.01 0.01
0.08 0.10 0.09 0.08 0.04 0.03 0.02 0.01 0.01 0.01 0.01 0.01 0.02 0.02 0.02 0.03 0.02 0.03 0.03 0.02 0.02 0.01 0.01 0.02 0.02 0.03 0.04 0.05 0.05 0.06 0.06 0.06 0.06 0.06 0.05 0.04 0.03 0.03 0.03 0.03 0.03 0.04 0.03
0.06 0.06 0.05 0.03 0.03 0.03 0.03 0.02 0.01 0.02 0.02 0.02 0.02 0.02 0.02 0.02 0.02 0.02 0.02 0.01 0.01 0.01 0.01 0.03 0.04 0.05 0.05 0.06 0.08 0.09 0.08 0.08 0.07 0.06 0.04 0.04 0.04 0.04 0.04 0.04 0.04 0.05 0.05
0.05 0.04 0.03 0.02 0.02 0.03 0.05 0.04 0.03 0.03 0.03 0.03 0.02 0.02 0.02 0.02 0.02 0.01 0.01 0.01 0.01 0.01 0.01 0.02 0.03 0.05 0.06 0.07 0.08 0.08 0.08 0.08 0.08 0.07 0.05 0.04 0.04 0.04 0.05 0.04 0.04 0.04 0.04
0.03 0.03 0.03 0.03 0.03 0.03 0.04 0.05 0.03 0.03 0.03 0.03 0.03 0.02 0.02 0.01 0.01 0.01 0.01 0.01 0.01 0.01 0.01 0.01 0.02 0.02 0.03 0.04 0.05 0.06 0.07 0.08 0.10 0.10 0.08 0.07 0.05 0.06 0.07 0.08 0.08 0.06 0.05
0.02 0.03 0.04 0.03 0.03 0.03 0.03 0.04 0.04 0.03 0.03 0.03 0.03 0.02 0.02 0.02 0.01 0.01 0.01 0.01 0.02 0.02 0.02 0.02 0.02 0.02 0.02 0.03 0.03 0.04 0.04 0.05 0.07 0.07 0.07 0.07 0.06 0.06 0.07 0.09 0.09 0.09 0.07
0.05 0.05 0.05 0.05 0.04 0.04 0.05 0.05 0.04 0.02 0.02 0.02 0.02 0.02 0.03 0.04 0.04 0.04 0.03 0.03 0.03 0.02 0.02 0.02 0.02 0.01 0.01 0.02 0.02 0.02 0.03 0.04 0.05 0.04 0.04 0.04 0.04 0.05 0.06 0.07 0.08 0.08 0.08
0.05 0.07 0.07 0.09 0.08 0.06 0.05 0.05 0.04 0.03 0.02 0.02 0.03 0.03 0.03 0.03 0.03 0.03 0.04 0.03 0.03 0.03 0.02 0.02 0.02 0.01 0.01 0.01 0.01 0.02 0.03 0.03 0.04 0.05 0.05 0.04 0.04 0.04 0.04 0.04 0.05 0.06 0.07
MSLP
1015.45 1015.55 1015.65 1015.73 1015.75 1015.69 1015.58 1015.41 1015.23 1015.06 1014.91 1014.80 1014.73 1014.68 1014.64 1014.58 1014.50 1014.38 1014.25 1014.11 1013.97 1013.85 1013.75 1013.67 1013.61 1013.53 1013.45 1013.33 1013.17 1012.99 1012.80 1012.60 1012.43 1012.29 1012.18 1012.13 1012.11 1012.13 1012.18 1012.25 1012.34 1012.46 1012.61
1015.86 1015.96 1016.06 1016.13 1016.15 1016.10 1015.99 1015.83 1015.64 1015.45 1015.28 1015.13 1015.01 1014.91 1014.82 1014.73 1014.62 1014.50 1014.36 1014.22 1014.08 1013.96 1013.84 1013.74 1013.63 1013.51 1013.38 1013.21 1013.02 1012.82 1012.61 1012.42 1012.26 1012.13 1012.04 1011.98 1011.97 1011.97 1012.00 1012.05 1012.12 1012.21 1012.34
1016.27 1016.36 1016.46 1016.52 1016.53 1016.48 1016.36 1016.20 1016.00 1015.80 1015.60 1015.42 1015.27 1015.13 1015.00 1014.88 1014.75 1014.61 1014.46 1014.32 1014.18 1014.05 1013.92 1013.79 1013.66 1013.50 1013.33 1013.14 1012.93 1012.71 1012.51 1012.32 1012.16 1012.05 1011.97 1011.92 1011.90 1011.90 1011.91 1011.93 1011.97 1012.02 1012.12
1016.63 1016.74 1016.82 1016.87 1016.85 1016.78 1016.64 1016.46 1016.25 1016.03 1015.82 1015.63 1015.46 1015.30 1015.15 1015.00 1014.85 1014.70 1014.54 1014.39 1014.24 1014.10 1013.96 1013.82 1013.66 1013.49 1013.30 1013.09 1012.87 1012.66 1012.45 1012.28 1012.13 1012.03 1011.96 1011.92 1011.89 1011.87 1011.86 1011.86 1011.86 1011.87 1011.92
1016.96 1017.06 1017.13 1017.14 1017.08 1016.96 1016.78 1016.58 1016.36 1016.14 1015.93 1015.74 1015.57 1015.41 1015.25 1015.10 1014.94 1014.77 1014.60 1014.43 1014.27 1014.12 1013.97 1013.81 1013.65 1013.47 1013.27 1013.06 1012.84 1012.63 1012.43 1012.26 1012.13 1012.03 1011.96 1011.92 1011.88 1011.85 1011.82 1011.78 1011.74 1011.71 1011.70
1017.26 1017.34 1017.37 1017.32 1017.19 1017.01 1016.80 1016.56 1016.33 1016.12 1015.93 1015.77 1015.62 1015.48 1015.34 1015.19 1015.02 1014.84 1014.66 1014.47 1014.30 1014.12 1013.96 1013.79 1013.62 1013.43 1013.24 1013.03 1012.81 1012.60 1012.40 1012.24 1012.10 1011.99 1011.92 1011.87 1011.82 1011.77 1011.72 1011.65 1011.57 1011.49 1011.43
1017.55 1017.59 1017.55 1017.42 1017.22 1016.97 1016.70 1016.44 1016.21 1016.02 1015.87 1015.76 1015.66 1015.57 1015.46 1015.32 1015.16 1014.97 1014.77 1014.56 1014.36 1014.16 1013.97 1013.79 1013.61 1013.42 1013.22 1013.00 1012.78 1012.56 1012.36 1012.17 1012.02 1011.89 1011.80 1011.72 1011.66 1011.59 1011.51 1011.42 1011.31 1011.19 1011.07
1017.85 1017.82 1017.69 1017.47 1017.18 1016.87 1016.56 1016.29 1016.07 1015.93 1015.84 1015.79 1015.76 1015.72 1015.66 1015.55 1015.40 1015.20 1014.98 1014.75 1014.51 1014.28 1014.07 1013.87 1013.66 1013.46 1013.24 1013.01 1012.77 1012.53 1012.29 1012.07 1011.88 1011.71 1011.58 1011.47 1011.37 1011.28 1011.19 1011.07 1010.94 1010.79 1010.63
1018.14 1018.03 1017.80 1017.49 1017.13 1016.76 1016.43 1016.16 1015.99 1015.91 1015.90 1015.93 1015.99 1016.02 1016.00 1015.92 1015.78 1015.58 1015.34 1015.07 1014.80 1014.54 1014.29 1014.05 1013.82 1013.58 1013.34 1013.08 1012.80 1012.52 1012.23 1011.95 1011.70 1011.47 1011.28 1011.13 1010.99 1010.87 1010.76 1010.63 1010.49 1010.32 1010.13
1018.42 1018.20 1017.89 1017.50 1017.08 1016.69 1016.36 1016.14 1016.03 1016.02 1016.10 1016.23 1016.36 1016.47 1016.50 1016.45 1016.32 1016.11 1015.84 1015.54 1015.23 1014.92 1014.63 1014.36 1014.09 1013.82 1013.53 1013.23 1012.90 1012.55 1012.20 1011.85 1011.52 1011.22 1010.97 1010.75 1010.57 1010.41 1010.27 1010.13 1009.98 1009.81 1009.60
1018.62 1018.32 1017.94 1017.50 1017.06 1016.68 1016.39 1016.23 1016.21 1016.29 1016.47 1016.68 1016.89 1017.05 1017.13 1017.10 1016.96 1016.74 1016.45 1016.12 1015.77 1015.42 1015.09 1014.77 1014.47 1014.15 1013.82 1013.47 1013.08 1012.67 1012.24 1011.82 1011.40 1011.03 1010.69 1010.41 1010.17 1009.97 1009.80 1009.64 1009.48 1009.29 1009.08
1018.74 1018.37 1017.94 1017.49 1017.07 1016.74 1016.52 1016.45 1016.51 1016.70 1016.96 1017.25 1017.52 1017.72 1017.81 1017.79 1017.65 1017.41 1017.09 1016.73 1016.35 1015.97 1015.61 1015.26 1014.91 1014.56 1014.19 1013.79 1013.35 1012.88 1012.38 1011.88 1011.39 1010.93 1010.52 1010.17 1009.87 1009.61 1009.40 1009.20 1009.01 1008.81 1008.58
1018.74 1018.33 1017.89 1017.47 1017.11 1016.85 1016.73 1016.76 1016.92 1017.19 1017.52 1017.87 1018.17 1018.38 1018.48 1018.45 1018.29 1018.03 1017.70 1017.31 1016.91 1016.51 1016.13 1015.75 1015.39 1015.01 1014.61 1014.17 1013.69 1013.17 1012.62 1012.06 1011.51 1010.99 1010.51 1010.08 1009.71 1009.39 1009.12 1008.86 1008.62 1008.37 1008.09
1018.67 1018.25 1017.83 1017.47 1017.19 1017.03 1017.01 1017.14 1017.38 1017.72 1018.09 1018.46 1018.76 1018.97 1019.05 1018.99 1018.82 1018.54 1018.18 1017.79 1017.38 1016.98 1016.59 1016.22 1015.84 1015.46 1015.04 1014.59 1014.09 1013.55 1012.97 1012.37 1011.78 1011.20 1010.67 1010.17 1009.73 1009.33 1008.97 1008.63 1008.29 1007.96 1007.60
1018.58 1018.17 1017.81 1017.52 1017.34 1017.28 1017.36 1017.57 1017.87 1018.24 1018.63 1018.98 1019.26 1019.43 1019.47 1019.38 1019.18 1018.89 1018.53 1018.14 1017.74 1017.35 1016.98 1016.61 1016.25 1015.87 1015.47 1015.02 1014.52 1013.98 1013.39 1012.79 1012.18 1011.57 1010.99 1010.44 1009.91 1009.42 1008.95 1008.49 1008.03 1007.56 1007.08
1018.55 1018.18 1017.89 1017.68 1017.59 1017.63 1017.79 1018.05 1018.38 1018.75 1019.11 1019.42 1019.64 1019.76 1019.75 1019.62 1019.40 1019.10 1018.75 1018.38 1018.00 1017.64 1017.29 1016.96 1016.62 1016.26 1015.87 1015.44 1014.96 1014.44 1013.87 1013.28 1012.67 1012.05 1011.44 1010.83 1010.23 1009.64 1009.04 1008.43 1007.81 1007.17 1006.52
1018.67 1018.35 1018.12 1018.00 1017.99 1018.09 1018.30 1018.58 1018.91 1019.24 1019.55 1019.79 1019.94 1019.99 1019.92 1019.77 1019.52 1019.23 1018.90 1018.55 1018.22 1017.89 1017.58 1017.27 1016.96 1016.62 1016.26 1015.85 1015.40 1014.91 1014.37 1013.81 1013.21 1012.60 1011.96 1011.31 1010.63 1009.92 1009.19 1008.41 1007.61 1006.77 1005.92
1018.98 1018.71 1018.55 1018.49 1018.54 1018.68 1018.90 1019.17 1019.46 1019.74 1019.97 1020.12 1020.19 1020.17 1020.06 1019.87 1019.63 1019.34 1019.04 1018.74 1018.44 1018.15 1017.87 1017.59 1017.30 1016.98 1016.64 1016.25 1015.83 1015.36 1014.86 1014.32 1013.75 1013.14 1012.49 1011.79 1011.04 1010.23 1009.36 1008.42 1007.42 1006.39 1005.33
1019.47 1019.26 1019.14 1019.13 1019.21 1019.36 1019.57 1019.80 1020.03 1020.22 1020.37 1020.44 1020.43 1020.35 1020.20 1020.00 1019.76 1019.50 1019.23 1018.97 1018.71 1018.46 1018.21 1017.94 1017.66 1017.35 1017.01 1016.63 1016.22 1015.77 1015.29 1014.78 1014.22 1013.62 1012.96 1012.23 1011.42 1010.51 1009.51 1008.42 1007.26 1006.03 1004.78
1020.09 1019.92 1019.84 1019.85 1019.93 1020.07 1020.24 1020.42 1020.57 1020.68 1020.74 1020.73 1020.66 1020.53 1020.36 1020.15 1019.93 1019.70 1019.48 1019.26 1019.04 1018.81 1018.58 1018.32 1018.03 1017.71 1017.36 1016.98 1016.56 1016.12 1015.65 1015.14 1014.60 1014.00 1013.33 1012.57 1011.71 1010.73 1009.63 1008.42 1007.11 1005.74 1004.33
1020.74 1020.60 1020.54 1020.55 1020.62 1020.73 1020.85 1020.95 1021.02 1021.05 1021.03 1020.96 1020.84 1020.68 1020.50 1020.31 1020.12 1019.93 1019.75 1019.57 1019.38 1019.18 1018.95 1018.68 1018.38 1018.04 1017.67 1017.26 1016.82 1016.37 1015.89 1015.38 1014.84 1014.24 1013.56 1012.78 1011.88 1010.85 1009.69 1008.40 1007.01 1005.53 1004.03
1021.32 1021.20 1021.14 1021.14 1021.18 1021.24 1021.29 1021.33 1021.33 1021.28 1021.20 1021.08 1020.93 1020.76 1020.59 1020.42 1020.26 1020.12 1019.98 1019.84 1019.68 1019.49 1019.26 1018.99 1018.67 1018.30 1017.89 1017.45 1016.99 1016.51 1016.02 1015.50 1014.94 1014.33 1013.64 1012.85 1011.94 1010.88 1009.69 1008.37 1006.94 1005.43 1003.89
1021.74 1021.62 1021.56 1021.53 1021.53 1021.53 1021.53 1021.49 1021.43 1021.32 1021.19 1021.03 1020.87 1020.70 1020.55 1020.42 1020.30 1020.20 1020.10 1020.00 1019.86 1019.69 1019.46 1019.18 1018.84 1018.45 1018.02 1017.55 1017.06 1016.55 1016.03 1015.49 1014.91 1014.29 1013.59 1012.79 1011.87 1010.83 1009.65 1008.34 1006.93 1005.45 1003.93
1021.97 1021.85 1021.76 1021.71 1021.66 1021.61 1021.54 1021.44 1021.32 1021.17 1021.00 1020.83 1020.66 1020.51 1020.38 1020.28 1020.20 1020.14 1020.08 1020.00 1019.89 1019.74 1019.52 1019.24 1018.89 1018.49 1018.04 1017.55 1017.03 1016.50 1015.95 1015.39 1014.80 1014.16 1013.45 1012.65 1011.74 1010.72 1009.57 1008.32 1006.97 1005.56 1004.13
1022.04 1021.90 1021.79 1021.70 1021.60 1021.50 1021.38 1021.23 1021.06 1020.88 1020.69 1020.50 1020.33 1020.19 1020.09 1020.01 1019.97 1019.94 1019.91 1019.87 1019.78 1019.64 1019.44 1019.17 1018.83 1018.43 1017.98 1017.48 1016.96 1016.41 1015.84 1015.26 1014.64 1013.98 1013.26 1012.47 1011.58 1010.59 1009.50 1008.33 1007.08 1005.78 1004.47
1021.99 1021.84 1021.71 1021.58 1021.44 1021.29 1021.13 1020.94 1020.74 1020.53 1020.32 1020.13 1019.96 1019.83 1019.74 1019.69 1019.67 1019.66 1019.66 1019.63 1019.57 1019.45 1019.27 1019.03 1018.71 1018.32 1017.88 1017.39 1016.87 1016.32 1015.74 1015.14 1014.51 1013.83 1013.11 1012.31 1011.44 1010.50 1009.48 1008.39 1007.25 1006.09 1004.92
Thickness
5797 5794 5791 5788 5785 5782 5779 5777 5775 5774 5773 5771 5769 5767 5764 5761 5758 5755 5752 5749 5745 5743 5741 5739 5736 5735 5732 5730 5727 5723 5720 5716 5710 5708 5706 5704 5702 5700 5698 5696 5694 5692 5690
5799 5795 5791 5788 5785 5782 5779 5778 5775 5773 5772 5770 5767 5765 5763 5760 5757 5754 5750 5748 5745 5742 5739 5737 5735 5733 5730 5727 5724 5721 5718 5715 5711 5706 5703 5700 5698 5696 5694 5691 5689 5688 5686
5798 5793 5789 5786 5783 5781 5779 5777 5775 5773 5770 5768 5765 5762 5760 5757 5754 5752 5749 5747 5744 5741 5738 5735 5732 5730 5727 5724 5722 5719 5715 5712 5709 5705 5701 5698 5694 5691 5689 5687 5685 5683 5682
5796 5792 5788 5786 5783 5781 5779 5776 5774 5772 5769 5765 5763 5761 5759 5755 5752 5750 5747 5744 5741 5738 5735 5732 5730 5727 5725 5722 5719 5716 5712 5708 5704 5701 5697 5694 5691 5687 5685 5682 5680 5678 5677
5794 5790 5788 5786 5783 5780 5776 5774 5772 5770 5766 5764 5761 5758 5756 5753 5750 5746 5744 5741 5737 5734 5731 5728 5726 5724 5722 5719 5716 5712 5709 5704 5700 5697 5693 5690 5687 5683 5681 5680 5676 5674 5672
5792 5788 5786 5783 5779 5776 5774 5771 5768 5766 5763 5760 5758 5756 5752 5750 5747 5744 5740 5736 5733 5729 5726 5724 5722 5719 5717 5714 5712 5709 5706 5701 5697 5694 5690 5687 5684 5682 5679 5676 5672 5669 5668
5788 5786 5783 5778 5775 5773 5770 5767 5764 5762 5759 5756 5754 5751 5748 5745 5742 5738 5734 5731 5728 5725 5722 5719 5716 5714 5711 5708 5706 5703 5700 5698 5696 5692 5688 5685 5682 5679 5675 5672 5669 5667 5666
5782 5780 5778 5774 5771 5769 5766 5763 5761 5758 5754 5752 5749 5746 5743 5741 5738 5734 5730 5726 5723 5720 5717 5713 5710 5707 5705 5702 5699 5697 5694 5692 5690 5688 5686 5684 5681 5677 5673 5671 5667 5663 5661
5778 5776 5774 5771 5767 5764 5761 5759 5756 5753 5750 5747 5743 5740 5737 5735 5732 5728 5724 5720 5717 5714 5712 5708 5704 5701 5698 5694 5691 5689 5687 5685 5684 5682 5681 5678 5675 5672 5668 5664 5660 5657 5656
5772 5771 5770 5767 5763 5760 5758 5754 5750 5747 5744 5741 5737 5734 5731 5729 5726 5722 5717 5715 5710 5707 5705 5702 5698 5695 5692 5688 5684 5682 5680 5679 5677 5676 5673 5671 5669 5666 5663 5660 5657 5654 5652
5766 5765 5763 5761 5759 5757 5753 5750 5745 5741 5737 5733 5730 5727 5724 5722 5719 5716 5712 5708 5704 5701 5698 5696 5693 5689 5685 5681 5678 5677 5675 5673 5670 5668 5666 5664 5663 5660 5658 5655 5653 5651 5648
5758 5756 5755 5753 5752 5750 5745 5742 5739 5735 5729 5725 5721 5718 5717 5715 5712 5709 5705 5701 5699 5695 5692 5689 5685 5681 5678 5674 5672 5670 5668 5665 5662 5660 5658 5657 5655 5654 5653 5650 5648 5646 5645
5749 5747 5745 5743 5742 5740 5737 5733 5730 5726 5722 5718 5714 5711 5708 5707 5705 5701 5697 5694 5691 5688 5685 5681 5678 5674 5670 5667 5664 5662 5660 5657 5654 5652 5650 5650 5649 5647 5645 5643 5641 5639 5638
5738 5736 5735 5733 5731 5729 5726 5723 5720 5717 5713 5710 5706 5703 5700 5698 5696 5692 5689 5685 5682 5679 5676 5673 5669 5666 5662 5659 5656 5654 5651 5649 5647 5645 5643 5642 5641 5639 5637 5635 5633 5632 5630
5727 5726 5724 5722 5720 5717 5714 5711 5709 5707 5705 5702 5699 5696 5692 5690 5688 5684 5681 5678 5675 5672 5668 5664 5661 5657 5654 5651 5648 5645 5642 5640 5639 5637 5636 5634 5633 5631 5630 5628 5626 5624 5623
5717 5715 5713 5711 5708 5705 5701 5698 5696 5694 5693 5692 5690 5688 5685 5683 5679 5675 5672 5669 5666 5663 5659 5656 5653 5649 5646 5644 5641 5638 5635 5633 5632 5630 5628 5626 5625 5624 5623 5621 5619 5618 5617
5706 5704 5702 5699 5697 5694 5691 5689 5685 5683 5682 5681 5679 5678 5676 5673 5669 5666 5662 5660 5657 5653 5650 5648 5645 5642 5639 5636 5633 5631 5629 5627 5625 5623 5621 5619 5618 5617 5615 5614 5612 5611 5610
5696 5693 5691 5688 5686 5684 5682 5679 5677 5674 5672 5670 5668 5666 5664 5662 5659 5656 5653 5650 5647 5644 5642 5639 5637 5634 5631 5628 5626 5624 5622 5620 5618 5616 5615 5613 5611 5609 5608 5607 5606 5604 5603
5683 5681 5680 5678 5675 5673 5671 5669 5667 5665 5662 5660 5658 5656 5653 5651 5648 5645 5643 5641 5638 5635 5633 5631 5629 5626 5624 5621 5619 5616 5614 5612 5611 5609 5607 5606 5604 5602 5601 5600 5599 5596 5595
5672 5671 5670 5667 5664 5662 5660 5658 5656 5654 5651 5649 5647 5646 5643 5640 5638 5635 5632 5631 5628 5626 5624 5622 5620 5618 5615 5613 5611 5608 5607 5605 5604 5602 5601 5599 5598 5596 5595 5593 5592 5590 5588
5662 5661 5660 5657 5654 5652 5650 5649 5646 5643 5641 5639 5636 5634 5631 5630 5628 5626 5623 5620 5618 5617 5614 5612 5610 5608 5606 5603 5601 5600 5599 5597 5596 5594 5593 5592 5590 5589 5588 5586 5584 5582 5581
5652 5651 5649 5648 5645 5643 5641 5639 5636 5634 5631 5628 5626 5623 5619 5617 5615 5613 5612 5610 5608 5606 5603 5601 5599 5597 5595 5593 5591 5590 5589 5588 5587 5586 5584 5583 5582 5581 5580 5579 5577 5575 5574
5642 5641 5640 5638 5636 5633 5631 5629 5626 5623 5620 5617 5615 5612 5608 5606 5604 5601 5599 5598 5597 5594 5592 5590 5588 5586 5584 5582 5581 5579 5579 5578 5578 5577 5575 5574 5574 5573 5572 5571 5570 5568 5567
5631 5630 5629 5627 5625 5623 5621 5618 5615 5612 5609 5606 5604 5601 5598 5595 5593 5590 5588 5586 5585 5583 5581 5580 5578 5577 5575 5573 5571 5570 5569 5569 5568 5568 5567 5566 5566 5565 5564 5563 5563 5562 5561
5620 5619 5618 5616 5614 5612 5610 5607 5604 5601 5599 5596 5593 5590 5587 5584 5582 5580 5577 5575 5574 5572 5571 5569 5568 5567 5565 5564 5562 5561 5561 5560 5560 5559 5558 5558 5558 5557 5556 5556 5555 5554 5553
5609 5608 5607 5604 5602 5600 5598 5595 5593 5590 5588 5585 5581 5578 5576 5573 5571 5569 5567 5565 5563 5562 5561 5560 5558 5557 5556 5556 5555 5553 5552 5552 5551 5549 5549 5548 5548 5548 5548 5548 5548 5547 5546